BAW10V EHRD-EGKK

Flight info

Callsign BAW10V
Flight time 1h 1m
Altitude 24000
Route ABNED Z344 AMRIV Q63 ARREK Y4 TEBRA
Aircraft A21N/M-SDE2E3FGHIRWXY/LB1

Departure

Time 2026-05-05 15:02
Airport Rotterdam The Hague Airport (EHRD)

Arrival

Time 2026-05-05 16:03
Airport London Gatwick Airport (EGKK)
Time Latitude Longitude Altitude Speed Heading
2026-05-05 14:38 51.95086 4.43432 4 ft 0 kts 327°
2026-05-05 14:56 51.95091 4.43428 4 ft 3 kts 327°
2026-05-05 14:57 51.95116 4.43402 4 ft 5 kts 326°
2026-05-05 14:57 51.95162 4.43352 4 ft 10 kts 326°
2026-05-05 14:57 51.95181 4.43253 4 ft 10 kts 246°
2026-05-05 14:57 51.95142 4.43140 5 ft 13 kts 241°
2026-05-05 14:58 51.95110 4.43022 4 ft 0 kts 254°
2026-05-05 14:58 51.95110 4.43021 4 ft 1 kts 255°
2026-05-05 14:58 51.95110 4.43000 4 ft 4 kts 273°
2026-05-05 14:58 51.95131 4.42933 5 ft 8 kts 317°
2026-05-05 14:59 51.95179 4.42877 4 ft 8 kts 329°
2026-05-05 14:59 51.95228 4.42870 5 ft 4 kts 32°
2026-05-05 14:59 51.95241 4.42895 6 ft 0 kts 54°
2026-05-05 15:01 51.95254 4.42925 7 ft 13 kts 54°
2026-05-05 15:01 51.95391 4.43274 3 ft 62 kts 57°
2026-05-05 15:01 51.95748 4.44161 3 ft 125 kts 57°
2026-05-05 15:01 51.96285 4.45496 407 ft 136 kts 56°
2026-05-05 15:02 51.96761 4.46627 1385 ft 111 kts 49°
2026-05-05 15:02 51.97286 4.47597 1798 ft 130 kts 43°
2026-05-05 15:02 51.97989 4.49091 1211 ft 206 kts 64°
2026-05-05 15:02 51.98543 4.51190 2141 ft 189 kts 55°
2026-05-05 15:03 51.99466 4.52480 3174 ft 172 kts 17°
2026-05-05 15:03 52.00614 4.52179 3785 ft 183 kts 326°
2026-05-05 15:03 52.01266 4.50192 3938 ft 214 kts 281°
2026-05-05 15:03 52.01589 4.48008 5114 ft 172 kts 294°
2026-05-05 15:04 52.01924 4.45883 4674 ft 237 kts 269°
2026-05-05 15:04 52.01588 4.42623 3352 ft 327 kts 259°
2026-05-05 15:04 52.01163 4.38887 3301 ft 355 kts 263°
2026-05-05 15:04 52.00845 4.34721 3214 ft 380 kts 266°
2026-05-05 15:05 52.00487 4.26948 6707 ft 302 kts 266°
2026-05-05 15:05 52.00344 4.23723 8296 ft 272 kts 266°
2026-05-05 15:05 52.00214 4.20781 9604 ft 251 kts 266°
2026-05-05 15:06 52.00089 4.18054 10576 ft 234 kts 263°
2026-05-05 15:06 51.99738 4.15526 11333 ft 227 kts 248°
2026-05-05 15:06 51.98923 4.13299 11832 ft 238 kts 225°
2026-05-05 15:06 51.97530 4.11616 12022 ft 266 kts 210°
2026-05-05 15:07 51.95796 4.10028 12021 ft 303 kts 215°
2026-05-05 15:07 51.94285 4.07435 12018 ft 337 kts 240°
2026-05-05 15:07 51.93495 4.03746 12345 ft 357 kts 259°
2026-05-05 15:07 51.93008 3.99697 12724 ft 375 kts 261°
2026-05-05 15:08 51.92582 3.95463 13314 ft 386 kts 261°
2026-05-05 15:08 51.92173 3.91113 13917 ft 396 kts 262°
2026-05-05 15:08 51.91757 3.86673 14607 ft 399 kts 261°
2026-05-05 15:08 51.91335 3.82210 15485 ft 399 kts 261°
2026-05-05 15:09 51.90917 3.77830 16626 ft 389 kts 260°
2026-05-05 15:09 51.90506 3.73546 17967 ft 376 kts 260°
2026-05-05 15:09 51.90239 3.70773 18793 ft 366 kts 260°
2026-05-05 15:09 51.89732 3.65529 20390 ft 346 kts 259°
2026-05-05 15:10 51.89362 3.61729 21302 ft 340 kts 259°
2026-05-05 15:10 51.89115 3.59214 21725 ft 340 kts 258°
2026-05-05 15:10 51.88616 3.54152 22565 ft 341 kts 259°
2026-05-05 15:10 51.88242 3.50361 23192 ft 340 kts 259°
2026-05-05 15:11 51.87995 3.47864 23600 ft 339 kts 258°
2026-05-05 15:11 51.87623 3.44100 24130 ft 337 kts 257°
2026-05-05 15:11 51.87250 3.40357 24660 ft 336 kts 259°
2026-05-05 15:11 51.86875 3.36604 24955 ft 342 kts 259°
2026-05-05 15:12 51.86484 3.32724 25021 ft 356 kts 258°
2026-05-05 15:12 51.86077 3.28697 25033 ft 371 kts 258°
2026-05-05 15:12 51.85653 3.24496 25025 ft 385 kts 257°
2026-05-05 15:12 51.85186 3.20148 25022 ft 399 kts 254°
2026-05-05 15:13 51.84033 3.14403 25023 ft 413 kts 245°
2026-05-05 15:13 51.83234 3.11505 25020 ft 421 kts 243°
2026-05-05 15:13 51.81926 3.07197 25014 ft 433 kts 242°
2026-05-05 15:13 51.80517 3.02819 25013 ft 445 kts 240°
2026-05-05 15:14 51.79052 2.98346 25012 ft 456 kts 239°
2026-05-05 15:14 51.77548 2.93752 25011 ft 467 kts 241°
2026-05-05 15:14 51.76024 2.89062 25008 ft 477 kts 240°
2026-05-05 15:14 51.74476 2.84259 25005 ft 487 kts 241°
2026-05-05 15:15 51.72935 2.79446 25828 ft 472 kts 240°
2026-05-05 15:15 51.71482 2.74856 27354 ft 446 kts 242°
2026-05-05 15:15 51.70127 2.70517 28847 ft 421 kts 241°
2026-05-05 15:15 51.68865 2.66417 30221 ft 397 kts 241°
2026-05-05 15:16 51.67686 2.62527 31315 ft 375 kts 242°
2026-05-05 15:16 51.66588 2.58830 32313 ft 354 kts 243°
2026-05-05 15:16 51.65573 2.55347 33242 ft 334 kts 242°
2026-05-05 15:16 51.64633 2.52050 34009 ft 315 kts 243°
2026-05-05 15:17 51.63762 2.48925 34527 ft 297 kts 244°
2026-05-05 15:17 51.62954 2.45932 34782 ft 289 kts 244°
2026-05-05 15:17 51.62167 2.42923 34625 ft 294 kts 245°
2026-05-05 15:17 51.61364 2.39810 34288 ft 307 kts 245°
2026-05-05 15:18 51.60550 2.36606 34108 ft 313 kts 245°
2026-05-05 15:18 51.59781 2.33377 34043 ft 318 kts 256°
2026-05-05 15:18 51.59561 2.29671 33041 ft 353 kts 268°
2026-05-05 15:18 51.59716 2.25543 32119 ft 386 kts 274°
2026-05-05 15:19 51.60141 2.21108 31291 ft 417 kts 279°
2026-05-05 15:19 51.60908 2.16421 30388 ft 443 kts 287°
2026-05-05 15:19 51.62231 2.11791 29019 ft 459 kts 300°
2026-05-05 15:19 51.64280 2.07799 27446 ft 478 kts 315°
2026-05-05 15:20 51.66743 2.04120 25934 ft 490 kts 310°
2026-05-05 15:20 51.68667 1.99594 24761 ft 490 kts 293°
2026-05-05 15:20 51.69717 1.94435 23967 ft 481 kts 277°
2026-05-05 15:20 51.69931 1.89125 23539 ft 467 kts 269°
2026-05-05 15:21 51.69795 1.83998 23208 ft 450 kts 262°
2026-05-05 15:21 51.69279 1.79109 22858 ft 434 kts 255°
2026-05-05 15:21 51.68429 1.74527 22534 ft 419 kts 247°
2026-05-05 15:21 51.67202 1.70360 22198 ft 405 kts 237°
2026-05-05 15:22 51.65540 1.66795 21887 ft 393 kts 225°
2026-05-05 15:22 51.63401 1.63921 21587 ft 414 kts 210°
2026-05-05 15:22 51.60738 1.61889 21277 ft 435 kts 196°
2026-05-05 15:22 51.57693 1.61058 20970 ft 456 kts 180°
2026-05-05 15:23 51.54505 1.61654 21120 ft 463 kts 166°
2026-05-05 15:23 51.51713 1.63425 22570 ft 407 kts 145°
2026-05-05 15:23 51.49833 1.66634 23829 ft 391 kts 123°
2026-05-05 15:23 51.48535 1.70498 24178 ft 399 kts 116°
2026-05-05 15:24 51.47558 1.74784 23968 ft 422 kts 105°
2026-05-05 15:24 51.47226 1.79576 23742 ft 445 kts 90°
2026-05-05 15:24 51.47767 1.84522 23515 ft 468 kts 73°
2026-05-05 15:24 51.49242 1.89369 23242 ft 489 kts 57°
2026-05-05 15:25 51.51486 1.93462 23273 ft 500 kts 43°
2026-05-05 15:25 51.54234 1.96726 23882 ft 476 kts 32°
2026-05-05 15:25 51.57055 1.99494 24427 ft 465 kts 33°
2026-05-05 15:25 51.59792 2.02243 24884 ft 466 kts 33°
2026-05-05 15:26 51.62555 2.05030 24920 ft 476 kts 33°
2026-05-05 15:26 51.65507 2.07621 24890 ft 490 kts 25°
2026-05-05 15:26 51.68760 2.09395 25137 ft 495 kts 13°
2026-05-05 15:26 51.72189 2.10055 25342 ft 501 kts 360°
2026-05-05 15:27 51.75645 2.09354 25760 ft 499 kts 344°
2026-05-05 15:27 51.78848 2.07351 26367 ft 493 kts 330°
2026-05-05 15:27 51.81660 2.04214 26715 ft 491 kts 316°
2026-05-05 15:27 51.83899 2.00079 27109 ft 486 kts 301°
2026-05-05 15:28 51.85438 1.95324 27565 ft 480 kts 288°
2026-05-05 15:28 51.86255 1.90162 28108 ft 473 kts 275°
2026-05-05 15:28 51.86339 1.84870 28598 ft 467 kts 263°
2026-05-05 15:28 51.85695 1.79754 28920 ft 459 kts 250°
2026-05-05 15:29 51.84388 1.75197 28841 ft 439 kts 236°
2026-05-05 15:29 51.82492 1.71453 28351 ft 428 kts 221°
2026-05-05 15:29 51.80085 1.68676 27486 ft 427 kts 207°
2026-05-05 15:29 51.77293 1.66938 26287 ft 433 kts 193°
2026-05-05 15:30 51.74288 1.66261 25009 ft 443 kts 181°
2026-05-05 15:30 51.71186 1.66600 23799 ft 450 kts 169°
2026-05-05 15:30 51.68145 1.67992 22451 ft 457 kts 158°
2026-05-05 15:30 51.65292 1.70263 21436 ft 455 kts 150°
2026-05-05 15:31 51.62640 1.72771 21530 ft 429 kts 149°
2026-05-05 15:31 51.60151 1.75152 21568 ft 406 kts 149°
2026-05-05 15:31 51.57789 1.77408 21546 ft 386 kts 149°
2026-05-05 15:31 51.55527 1.79573 21458 ft 369 kts 149°
2026-05-05 15:32 51.53361 1.81652 21331 ft 359 kts 149°
2026-05-05 15:32 51.51153 1.83778 21249 ft 380 kts 149°
2026-05-05 15:32 51.48837 1.86011 21247 ft 398 kts 149°
2026-05-05 15:32 51.46402 1.88357 21297 ft 414 kts 149°
2026-05-05 15:33 51.43897 1.90766 21394 ft 427 kts 149°
2026-05-05 15:33 51.41316 1.93246 21486 ft 428 kts 150°
2026-05-05 15:33 51.38830 1.95633 21515 ft 406 kts 149°
2026-05-05 15:33 51.36468 1.97899 21450 ft 388 kts 149°
2026-05-05 15:34 51.34247 2.00212 21323 ft 374 kts 143°
2026-05-05 15:34 51.32331 2.02971 20904 ft 371 kts 133°
2026-05-05 15:34 51.30837 2.06371 20187 ft 378 kts 117°
2026-05-05 15:34 51.29979 2.10368 19419 ft 385 kts 101°
2026-05-05 15:35 51.29917 2.14652 18787 ft 387 kts 83°
2026-05-05 15:35 51.30652 2.18775 18129 ft 387 kts 65°
2026-05-05 15:35 51.32122 2.22381 17325 ft 390 kts 49°
2026-05-05 15:35 51.34210 2.25153 16538 ft 392 kts 32°
2026-05-05 15:36 51.36722 2.26827 15759 ft 394 kts 14°
2026-05-05 15:36 51.39437 2.27223 15191 ft 392 kts 357°
2026-05-05 15:36 51.42055 2.26330 14957 ft 380 kts 340°
2026-05-05 15:36 51.44455 2.24374 14929 ft 401 kts 327°
2026-05-05 15:37 51.46522 2.21430 14923 ft 395 kts 310°
2026-05-05 15:37 51.47980 2.17753 14924 ft 385 kts 297°
2026-05-05 15:37 51.49100 2.13894 14921 ft 381 kts 292°
2026-05-05 15:37 51.50052 2.09908 14932 ft 391 kts 290°
2026-05-05 15:38 51.51009 2.05668 14936 ft 417 kts 290°
2026-05-05 15:38 51.52087 2.01185 14932 ft 440 kts 292°
2026-05-05 15:38 51.53280 1.96605 15569 ft 432 kts 293°
2026-05-05 15:38 51.54444 1.92277 15355 ft 416 kts 294°
2026-05-05 15:39 51.55588 1.88062 14964 ft 403 kts 291°
2026-05-05 15:39 51.56320 1.83842 14927 ft 381 kts 279°
2026-05-05 15:39 51.56468 1.79683 14928 ft 367 kts 266°
2026-05-05 15:39 51.55969 1.75677 14933 ft 369 kts 248°
2026-05-05 15:40 51.54689 1.72108 14945 ft 371 kts 233°
2026-05-05 15:40 51.53068 1.68862 14940 ft 374 kts 229°
2026-05-05 15:40 51.51358 1.65686 14934 ft 377 kts 228°
2026-05-05 15:40 51.49669 1.62447 14931 ft 380 kts 233°
2026-05-05 15:41 51.48358 1.58756 14939 ft 383 kts 246°
2026-05-05 15:41 51.47372 1.54773 14937 ft 385 kts 249°
2026-05-05 15:41 51.46761 1.52098 14941 ft 386 kts 249°
2026-05-05 15:41 51.45532 1.46666 14942 ft 388 kts 250°
2026-05-05 15:42 51.44606 1.42612 14939 ft 389 kts 249°
2026-05-05 15:42 51.43451 1.38710 14937 ft 386 kts 236°
2026-05-05 15:42 51.41710 1.35498 14940 ft 380 kts 220°
2026-05-05 15:42 51.39647 1.32872 14926 ft 377 kts 216°
2026-05-05 15:43 51.37520 1.30366 14533 ft 385 kts 216°
2026-05-05 15:43 51.35354 1.27839 14399 ft 384 kts 215°
2026-05-05 15:43 51.33234 1.25255 14226 ft 385 kts 220°
2026-05-05 15:43 51.31376 1.22083 13615 ft 398 kts 232°
2026-05-05 15:44 51.29805 1.18389 12874 ft 402 kts 237°
2026-05-05 15:44 51.28323 1.14554 12232 ft 396 kts 239°
2026-05-05 15:44 51.26925 1.10858 11969 ft 379 kts 239°
2026-05-05 15:44 51.25602 1.07347 11912 ft 358 kts 239°
2026-05-05 15:45 51.24356 1.04042 11932 ft 337 kts 239°
2026-05-05 15:45 51.23569 1.01957 11931 ft 326 kts 239°
2026-05-05 15:45 51.22415 0.98900 11926 ft 316 kts 239°
2026-05-05 15:45 51.21289 0.95919 11735 ft 311 kts 239°
2026-05-05 15:46 51.20177 0.92979 11327 ft 310 kts 239°
2026-05-05 15:46 51.19050 0.90004 10697 ft 317 kts 239°
2026-05-05 15:46 51.17900 0.86971 10056 ft 323 kts 239°
2026-05-05 15:46 51.16730 0.83891 9416 ft 326 kts 240°
2026-05-05 15:47 51.15570 0.80842 9080 ft 317 kts 239°
2026-05-05 15:47 51.14450 0.77904 9033 ft 306 kts 240°
2026-05-05 15:47 51.13328 0.74958 9040 ft 307 kts 240°
2026-05-05 15:47 51.12202 0.72002 9070 ft 321 kts 240°
2026-05-05 15:48 51.11009 0.68875 9075 ft 347 kts 240°
2026-05-05 15:48 51.09715 0.65489 9074 ft 340 kts 240°
2026-05-05 15:48 51.08534 0.62412 9084 ft 319 kts 240°
2026-05-05 15:48 51.07390 0.59434 9036 ft 314 kts 239°
2026-05-05 15:49 51.06255 0.56476 8679 ft 314 kts 240°
2026-05-05 15:49 51.05118 0.53515 8289 ft 312 kts 240°
2026-05-05 15:49 51.03988 0.50577 8142 ft 312 kts 240°
2026-05-05 15:49 51.02859 0.47637 8135 ft 311 kts 242°
2026-05-05 15:50 51.02056 0.44426 8138 ft 308 kts 259°
2026-05-05 15:50 51.01741 0.40997 8134 ft 307 kts 266°
2026-05-05 15:50 51.01528 0.37642 8136 ft 307 kts 265°
2026-05-05 15:50 51.01414 0.35752 8133 ft 307 kts 266°
2026-05-05 15:51 51.01241 0.33032 8128 ft 307 kts 266°
2026-05-05 15:51 51.01024 0.29582 7938 ft 307 kts 266°
2026-05-05 15:51 51.00814 0.26181 7547 ft 306 kts 265°
2026-05-05 15:51 51.00610 0.22861 7138 ft 304 kts 266°
2026-05-05 15:52 51.00401 0.19479 6716 ft 303 kts 267°
2026-05-05 15:52 51.00166 0.15992 6303 ft 301 kts 266°
2026-05-05 15:52 50.99947 0.12797 5706 ft 303 kts 266°
2026-05-05 15:52 50.99703 0.09420 5008 ft 306 kts 265°
2026-05-05 15:53 50.99472 0.06063 4298 ft 309 kts 266°
2026-05-05 15:53 50.99218 0.02309 3540 ft 311 kts 266°
2026-05-05 15:53 50.99012 -0.00843 3115 ft 304 kts 266°
2026-05-05 15:53 50.98810 -0.04010 2988 ft 286 kts 265°
2026-05-05 15:54 50.98607 -0.07209 2974 ft 263 kts 266°
2026-05-05 15:54 50.98422 -0.10015 2989 ft 257 kts 266°
2026-05-05 15:54 50.98239 -0.12835 2987 ft 254 kts 266°
2026-05-05 15:54 50.98057 -0.15595 2996 ft 252 kts 266°
2026-05-05 15:55 50.97877 -0.18365 2995 ft 252 kts 266°
2026-05-05 15:55 50.97699 -0.21132 2991 ft 252 kts 265°
2026-05-05 15:55 50.97530 -0.23898 2997 ft 251 kts 266°
2026-05-05 15:55 50.97359 -0.26650 2990 ft 251 kts 266°
2026-05-05 15:56 50.97420 -0.29419 2997 ft 248 kts 284°
2026-05-05 15:56 50.97882 -0.32052 2992 ft 245 kts 290°
2026-05-05 15:56 50.98415 -0.34616 2993 ft 244 kts 290°
2026-05-05 15:56 50.98954 -0.37167 2990 ft 244 kts 290°
2026-05-05 15:57 50.99497 -0.39721 2990 ft 244 kts 291°
2026-05-05 15:57 51.00035 -0.42280 2998 ft 245 kts 291°
2026-05-05 15:57 51.00585 -0.44843 2985 ft 243 kts 296°
2026-05-05 15:57 51.01553 -0.46892 2995 ft 232 kts 326°
2026-05-05 15:58 51.02472 -0.47774 2988 ft 229 kts 336°
2026-05-05 15:58 51.03938 -0.48787 2998 ft 231 kts 340°
2026-05-05 15:58 51.05414 -0.49679 2981 ft 222 kts 349°
2026-05-05 15:58 51.06899 -0.49604 2988 ft 213 kts 22°
2026-05-05 15:59 51.08170 -0.48431 2927 ft 213 kts 38°
2026-05-05 15:59 51.09320 -0.46940 2748 ft 214 kts 40°
2026-05-05 15:59 51.10453 -0.45389 2573 ft 215 kts 42°
2026-05-05 15:59 51.11452 -0.43630 2384 ft 214 kts 56°
2026-05-05 16:00 51.12044 -0.41472 2118 ft 213 kts 77°
2026-05-05 16:00 51.12326 -0.39117 1977 ft 217 kts 79°
2026-05-05 16:00 51.12553 -0.36760 1990 ft 215 kts 79°
2026-05-05 16:00 51.12801 -0.34393 1985 ft 214 kts 78°
2026-05-05 16:01 51.13075 -0.32060 1755 ft 214 kts 77°
2026-05-05 16:01 51.13372 -0.29735 1473 ft 212 kts 76°
2026-05-05 16:01 51.13657 -0.27558 1426 ft 183 kts 75°
2026-05-05 16:01 51.13905 -0.25703 1297 ft 159 kts 75°
2026-05-05 16:02 51.14142 -0.24048 834 ft 158 kts 76°
2026-05-05 16:02 51.14371 -0.22317 409 ft 155 kts 78°
2026-05-05 16:02 51.14595 -0.20644 225 ft 141 kts 77°
2026-05-05 16:02 51.14775 -0.19314 215 ft 108 kts 79°
2026-05-05 16:03 51.14900 -0.18431 220 ft 55 kts 77°
2026-05-05 16:03 51.14947 -0.18107 218 ft 5 kts 71°
2026-05-05 16:03 51.14978 -0.17978 214 ft 19 kts 64°
2026-05-05 16:03 51.15068 -0.17774 212 ft 22 kts 47°
2026-05-05 16:04 51.15084 -0.17751 211 ft 0 kts 36°
2026-05-05 16:06 51.15109 -0.17726 219 ft 9 kts 20°
2026-05-05 16:07 51.15190 -0.17700 217 ft 13 kts 42°
2026-05-05 16:07 51.15206 -0.17565 208 ft 15 kts 86°
2026-05-05 16:07 51.15220 -0.17456 213 ft 0 kts 76°
2026-05-05 16:07 51.15223 -0.17438 214 ft 6 kts 76°
2026-05-05 16:08 51.15243 -0.17311 214 ft 17 kts 76°
2026-05-05 16:08 51.15268 -0.17081 212 ft 25 kts 79°
2026-05-05 16:08 51.15285 -0.16966 208 ft 0 kts 76°
2026-05-05 16:10 51.15287 -0.16952 208 ft 6 kts 76°
2026-05-05 16:10 51.15305 -0.16831 217 ft 16 kts 78°
2026-05-05 16:10 51.15373 -0.16687 211 ft 14 kts
2026-05-05 16:10 51.15457 -0.16705 208 ft 12 kts 350°
2026-05-05 16:11 51.15509 -0.16722 215 ft 0 kts 347°